Orbital Elements at Epoch 2459000.5 (2020-May-31.0) TDB
Reference: JPL 33 (heliocentric ecliptic J2000)
Element | Value | Uncertainty (1-sigma) | Units |
e | .1090449221810998 | 3.8175e-08 | |
a | 2.600253723824122 | 9.4267e-09 | au |
q | 2.316709258858606 | 9.7571e-08 | au |
i | 13.41374059241211 | 4.5745e-06 | deg |
node | 21.20994951475106 | 1.6052e-05 | deg |
peri | 158.5641635143218 | 2.5066e-05 | deg |
M | 44.3514075772587 | 1.8959e-05 | deg |
tp | 2458811.819540962431 (2019-Nov-24.31954096) | 8.0533e-05 | TDB |
period | 1531.517689381147 4.19 | 8.3283e-06 2.28e-08 | d yr |
n | .2350609480361067 | 1.2783e-09 | deg/d |
Q | 2.883798188789638 | 1.0455e-08 | au |
|
| | Orbit Determination Parameters
Additional Information
|